Flag for China Weather past 2 weeks in Langfang, Hebei, China

Now
28 °F

Haze.


Feels Like: 28 °F
Forecast: 18 / 40 °F
Wind: 1 mph from Southeast

Location: Beijing Airport

Current Time: Dec 18, 2014 at 6:12:41 PM

Latest Report: Dec 18, 2014 at 5:30 PM


Visibility: 3 mi

Pressure: 30.27 "Hg

Humidity: 69%

Dew point: 19 °F

Location of LangfangLocation

Historic Weather in Langfang — Graph

°F

Langfang temperature yesterday

Maximum temperature yesterday: 41 °F (at 2:30 PM)
Minimum temperature yesterday: 12 °F (at 7:30 AM)
Average temperature yesterday: 27 °F

Past Weeks' High & Low Weather Summary

 TemperatureHumidityPressure
High43 °F (Dec 14, 12:30 PM)100% (Dec 10, 5:30 AM)30.63 "Hg (Dec 10, 5:30 AM)
Low12 °F (Dec 17, 7:30 AM)11% (Dec 4, 3:30 PM)30.24 "Hg (Dec 14, 2:00 PM)
Average29 °F38%30.39 "Hg
* Reported Dec 3 5:00 PM — Dec 18 5:00 PM, Langfang, Weather by CustomWeather, © 2014

Note: Actual official high and low records may vary slightly from our data, if they occured in-between our weather recording intervals... More about our weather records

Advertising

Langfang weather history for previous 24 hours

 ConditionsComfort  
Time TempWeatherWind HumidityBarometerVisibility
5:00 PM
Dec 18
30 °FHaze.1 mph69%30.30 "Hg3 mi
4:30 PM34 °FHaze.1 mph56%30.30 "Hg3 mi
4:00 PM34 °FHaze.3 mph56%30.30 "Hg3 mi
3:30 PM36 °FClear.3 mph48%30.30 "Hg4 mi
3:00 PM36 °FClear.3 mph52%30.30 "Hg4 mi
2:30 PM36 °FClear.6 mph52%30.30 "Hg4 mi
2:00 PM36 °FClear.3 mph52%30.33 "Hg4 mi
1:30 PM36 °FClear.3 mph48%30.33 "Hg4 mi
1:00 PM36 °FClear.3 mph44%30.36 "Hg4 mi
12:30 PM36 °FClear.3 mph48%30.36 "Hg4 mi
11:30 AM34 °FClear.1 mph41%30.42 "Hg4 mi
11:00 AM32 °FHaze.3 mph40%30.45 "Hg3 mi
10:30 AM32 °FHaze.3 mph44%30.45 "Hg3 mi
10:00 AM28 °FClear.3 mph47%30.45 "Hg4 mi
9:30 AM27 °FHaze.6 mph50%30.48 "Hg3 mi
9:00 AM25 °FHaze.6 mph54%30.45 "Hg3 mi
8:30 AM23 °FHaze.6 mph58%30.48 "Hg3 mi
8:00 AM19 °FHaze.3 mph63%30.45 "Hg3 mi
7:30 AM18 °FClear.6 mph68%30.45 "Hg4 mi
7:00 AM16 °FClear.3 mph67%30.45 "Hg4 mi
6:30 AM16 °FClear.6 mph67%30.45 "Hg4 mi
6:00 AM19 °FClear.3 mph58%30.45 "Hg4 mi
5:30 AM16 °FClear.6 mph67%30.45 "Hg4 mi
4:30 AM18 °FClear.8 mph68%30.42 "Hg4 mi
4:00 AM18 °FClear.6 mph62%30.42 "Hg4 mi
3:30 AM18 °FClear.1 mph68%30.45 "Hg4 mi
3:00 AM16 °FClear.3 mph67%30.45 "Hg5 mi
2:30 AM18 °FClear.1 mph68%30.45 "Hg5 mi
2:00 AM19 °FClear.3 mph63%30.42 "Hg10 mi
1:30 AM19 °FClear.3 mph58%30.42 "Hg10 mi
1:00 AM19 °FClear.1 mph63%30.42 "Hg10 mi
12:30 AM23 °FClear.1 mph54%30.42 "Hg10 mi
12:00 AM21 °FClear.3 mph58%30.42 "Hg10 mi
11:30 PM
Dec 17
21 °FClear.6 mph49%30.42 "Hg10 mi
11:00 PM21 °FClear.3 mph54%30.42 "Hg10 mi
10:30 PM21 °FClear.1 mph54%30.42 "Hg10 mi
10:00 PM27 °FClear.1 mph43%30.42 "Hg10 mi
9:30 PM25 °FClear.1 mph46%30.42 "Hg4 mi
9:00 PM25 °FClear.1 mph46%30.42 "Hg4 mi
8:30 PM25 °FClear.1 mph46%30.39 "Hg4 mi
8:00 PM27 °FClear.1 mph39%30.39 "Hg4 mi
7:30 PM28 °FClear.3 mph40%30.39 "Hg4 mi
7:00 PM28 °FClear.3 mph37%30.39 "Hg4 mi
6:30 PM28 °FClear.1 mph37%30.36 "Hg4 mi
6:00 PM32 °FClear.3 mph34%30.36 "Hg4 mi
Weather by CustomWeather, © 2014

See weather overviewHow to use our weather pages